AEE292 LGAV-LGKF

Flight info

Callsign AEE292
Flight time 0h 40m
Altitude 28000
Route KOR UN604 ARA
Aircraft A20N/M-SDE2E3FGHIRWXY/LB1

Departure

Time 2026-04-26 19:21
Airport Athens Eleftherios Venizelos International Airport (LGAV)

Arrival

Time 2026-04-26 20:01
Airport Kefallinia Airport (LGKF)
Time Latitude Longitude Altitude Speed Heading
2026-04-26 19:06 37.93605 23.94839 277 ft 0 kts 307°
2026-04-26 19:13 37.93605 23.94840 300 ft 1 kts 307°
2026-04-26 19:13 37.93602 23.94844 300 ft 1 kts 307°
2026-04-26 19:13 37.93596 23.94854 302 ft 2 kts 307°
2026-04-26 19:14 37.93587 23.94869 301 ft 2 kts 307°
2026-04-26 19:14 37.93578 23.94884 303 ft 2 kts 300°
2026-04-26 19:14 37.93571 23.94901 300 ft 2 kts 281°
2026-04-26 19:14 37.93570 23.94908 302 ft 2 kts 273°
2026-04-26 19:15 37.93577 23.94937 300 ft 2 kts 220°
2026-04-26 19:15 37.93578 23.94938 300 ft 0 kts 217°
2026-04-26 19:15 37.93567 23.94928 301 ft 4 kts 217°
2026-04-26 19:16 37.93534 23.94896 300 ft 8 kts 217°
2026-04-26 19:16 37.93477 23.94855 300 ft 11 kts 194°
2026-04-26 19:16 37.93438 23.94889 302 ft 8 kts 121°
2026-04-26 19:16 37.93400 23.94960 303 ft 12 kts 130°
2026-04-26 19:17 37.93317 23.94964 298 ft 14 kts 210°
2026-04-26 19:17 37.93231 23.94884 301 ft 17 kts 216°
2026-04-26 19:17 37.93132 23.94789 301 ft 19 kts 218°
2026-04-26 19:17 37.93020 23.94680 300 ft 21 kts 214°
2026-04-26 19:18 37.92897 23.94564 303 ft 23 kts 217°
2026-04-26 19:18 37.92769 23.94443 303 ft 24 kts 216°
2026-04-26 19:18 37.92632 23.94315 303 ft 24 kts 217°
2026-04-26 19:18 37.92536 23.94326 306 ft 10 kts 125°
2026-04-26 19:19 37.92534 23.94328 305 ft 0 kts 125°
2026-04-26 19:19 37.92534 23.94329 305 ft 0 kts 125°
2026-04-26 19:20 37.92528 23.94339 306 ft 4 kts 126°
2026-04-26 19:20 37.92522 23.94350 306 ft 6 kts 126°
2026-04-26 19:20 37.92570 23.94525 306 ft 34 kts 38°
2026-04-26 19:20 37.92948 23.94887 297 ft 100 kts 38°
2026-04-26 19:21 37.93645 23.95550 280 ft 147 kts 37°
2026-04-26 19:21 37.94543 23.96378 456 ft 168 kts 35°
2026-04-26 19:21 37.95484 23.97257 1012 ft 168 kts 36°
2026-04-26 19:21 37.96406 23.98136 1683 ft 164 kts 37°
2026-04-26 19:22 37.97304 23.99014 2322 ft 162 kts 38°
2026-04-26 19:22 37.98159 23.99922 2927 ft 160 kts 40°
2026-04-26 19:22 37.98850 24.01026 3530 ft 162 kts 64°
2026-04-26 19:22 37.99081 24.02436 4158 ft 170 kts 92°
2026-04-26 19:23 37.98601 24.03870 4649 ft 191 kts 133°
2026-04-26 19:23 37.97418 24.04705 5156 ft 211 kts 171°
2026-04-26 19:23 37.95884 24.04505 5627 ft 229 kts 206°
2026-04-26 19:23 37.94616 24.03228 6051 ft 248 kts 239°
2026-04-26 19:24 37.93991 24.01122 6614 ft 262 kts 268°
2026-04-26 19:24 37.93905 23.98785 7346 ft 273 kts 271°
2026-04-26 19:24 37.93272 23.93959 9344 ft 284 kts 256°
2026-04-26 19:25 37.92628 23.91564 10291 ft 291 kts 252°
2026-04-26 19:25 37.92379 23.90746 10518 ft 297 kts 251°
2026-04-26 19:25 37.90963 23.86455 11144 ft 338 kts 249°
2026-04-26 19:25 37.90013 23.83673 11809 ft 348 kts 249°
2026-04-26 19:26 37.89288 23.80747 12660 ft 351 kts 261°
2026-04-26 19:26 37.89068 23.78714 13233 ft 353 kts 268°
2026-04-26 19:26 37.89122 23.75586 14039 ft 357 kts 276°
2026-04-26 19:26 37.89297 23.72440 14834 ft 360 kts 276°
2026-04-26 19:27 37.89463 23.69319 15619 ft 364 kts 276°
2026-04-26 19:27 37.89630 23.66037 16415 ft 368 kts 276°
2026-04-26 19:27 37.89792 23.62790 17198 ft 371 kts 276°
2026-04-26 19:27 37.89954 23.59504 17970 ft 375 kts 276°
2026-04-26 19:28 37.90117 23.56192 18667 ft 379 kts 276°
2026-04-26 19:28 37.90280 23.52849 19361 ft 381 kts 276°
2026-04-26 19:28 37.90444 23.49497 20056 ft 383 kts 276°
2026-04-26 19:28 37.90609 23.46108 20725 ft 386 kts 276°
2026-04-26 19:29 37.90773 23.42702 21404 ft 389 kts 276°
2026-04-26 19:29 37.90939 23.39269 22059 ft 392 kts 276°
2026-04-26 19:29 37.91104 23.35810 22715 ft 395 kts 276°
2026-04-26 19:29 37.91271 23.32317 23364 ft 398 kts 276°
2026-04-26 19:30 37.91436 23.28843 23936 ft 401 kts 276°
2026-04-26 19:30 37.91605 23.25260 24490 ft 403 kts 275°
2026-04-26 19:30 37.91769 23.21751 25022 ft 406 kts 275°
2026-04-26 19:30 37.91881 23.19336 25368 ft 408 kts 275°
2026-04-26 19:31 37.92102 23.14570 26043 ft 411 kts 275°
2026-04-26 19:31 37.92268 23.10948 26533 ft 414 kts 275°
2026-04-26 19:31 37.92434 23.07299 27028 ft 416 kts 275°
2026-04-26 19:31 37.92600 23.03631 27496 ft 419 kts 275°
2026-04-26 19:32 37.92767 22.99932 27909 ft 421 kts 275°
2026-04-26 19:32 37.92933 22.96219 28045 ft 423 kts 275°
2026-04-26 19:32 37.93651 22.88862 28054 ft 421 kts 281°
2026-04-26 19:33 37.94605 22.81540 28052 ft 421 kts 281°
2026-04-26 19:33 37.95546 22.74212 28059 ft 421 kts 280°
2026-04-26 19:34 37.96476 22.66924 28062 ft 422 kts 280°
2026-04-26 19:34 37.97580 22.59630 28071 ft 421 kts 283°
2026-04-26 19:35 37.98802 22.52367 28073 ft 421 kts 283°
2026-04-26 19:35 37.99989 22.45104 28077 ft 421 kts 282°
2026-04-26 19:36 38.00960 22.39051 28081 ft 421 kts 282°
2026-04-26 19:36 38.02317 22.30540 28086 ft 421 kts 282°
2026-04-26 19:37 38.03474 22.23250 28091 ft 421 kts 282°
2026-04-26 19:37 38.04626 22.15965 28097 ft 421 kts 282°
2026-04-26 19:38 38.05770 22.08701 28097 ft 422 kts 282°
2026-04-26 19:38 38.06916 22.01392 28099 ft 422 kts 282°
2026-04-26 19:39 38.08056 21.94089 28098 ft 422 kts 282°
2026-04-26 19:39 38.09192 21.86782 28103 ft 422 kts 282°
2026-04-26 19:40 38.10317 21.79511 28102 ft 422 kts 281°
2026-04-26 19:40 38.11446 21.72188 28102 ft 422 kts 281°
2026-04-26 19:41 38.12568 21.64877 28102 ft 422 kts 281°
2026-04-26 19:41 38.13497 21.58795 28102 ft 422 kts 281°
2026-04-26 19:42 38.14793 21.50279 27897 ft 423 kts 281°
2026-04-26 19:42 38.15348 21.46608 27298 ft 424 kts 280°
2026-04-26 19:42 38.15715 21.42866 26396 ft 429 kts 274°
2026-04-26 19:43 38.15729 21.39095 25841 ft 424 kts 268°
2026-04-26 19:43 38.15537 21.35385 25297 ft 418 kts 268°
2026-04-26 19:43 38.15363 21.31714 24710 ft 414 kts 268°
2026-04-26 19:43 38.15196 21.28077 24135 ft 409 kts 268°
2026-04-26 19:44 38.15030 21.24479 23506 ft 407 kts 268°
2026-04-26 19:44 38.14864 21.20923 22952 ft 400 kts 268°
2026-04-26 19:44 38.14697 21.17410 22367 ft 395 kts 268°
2026-04-26 19:44 38.14531 21.13944 21794 ft 390 kts 268°
2026-04-26 19:45 38.14365 21.10522 21226 ft 386 kts 268°
2026-04-26 19:45 38.14203 21.07185 20675 ft 382 kts 268°
2026-04-26 19:45 38.14038 21.03829 20124 ft 379 kts 268°
2026-04-26 19:45 38.13875 21.00504 19550 ft 376 kts 268°
2026-04-26 19:46 38.13709 20.97153 18935 ft 375 kts 268°
2026-04-26 19:46 38.13656 20.96085 18788 ft 373 kts 268°
2026-04-26 19:46 38.13583 20.94639 18559 ft 372 kts 268°
2026-04-26 19:46 38.13420 20.91364 17914 ft 371 kts 268°
2026-04-26 19:47 38.13256 20.88127 17402 ft 366 kts 268°
2026-04-26 19:47 38.13149 20.85999 17040 ft 363 kts 268°
2026-04-26 19:47 38.12932 20.81739 16299 ft 360 kts 267°
2026-04-26 19:47 38.12770 20.78573 15758 ft 358 kts 267°
2026-04-26 19:48 38.12609 20.75432 15174 ft 357 kts 267°
2026-04-26 19:48 38.12452 20.72403 14699 ft 354 kts 267°
2026-04-26 19:48 38.12290 20.69300 14194 ft 352 kts 267°
2026-04-26 19:48 38.12129 20.66215 13653 ft 350 kts 267°
2026-04-26 19:49 38.11966 20.63123 13081 ft 348 kts 267°
2026-04-26 19:49 38.11804 20.60061 12509 ft 347 kts 267°
2026-04-26 19:49 38.11644 20.57041 12081 ft 342 kts 267°
2026-04-26 19:49 38.11485 20.54033 11526 ft 341 kts 267°
2026-04-26 19:50 38.11087 20.51092 11083 ft 337 kts 255°
2026-04-26 19:50 38.10215 20.48368 10514 ft 339 kts 242°
2026-04-26 19:50 38.08954 20.45895 10312 ft 327 kts 237°
2026-04-26 19:50 38.07727 20.43531 10192 ft 314 kts 238°
2026-04-26 19:51 38.06563 20.41257 10056 ft 301 kts 238°
2026-04-26 19:51 38.05435 20.39045 9749 ft 295 kts 238°
2026-04-26 19:51 38.04332 20.36886 9440 ft 289 kts 238°
2026-04-26 19:51 38.03239 20.34750 9044 ft 287 kts 238°
2026-04-26 19:52 38.02024 20.32742 8481 ft 292 kts 222°
2026-04-26 19:52 38.00254 20.31502 7992 ft 294 kts 195°
2026-04-26 19:52 37.98227 20.31351 7558 ft 293 kts 169°
2026-04-26 19:52 37.96361 20.32314 7123 ft 291 kts 143°
2026-04-26 19:53 37.95032 20.34187 6753 ft 286 kts 117°
2026-04-26 19:53 37.94474 20.36561 6441 ft 279 kts 96°
2026-04-26 19:53 37.94270 20.38964 6265 ft 274 kts 95°
2026-04-26 19:53 37.93984 20.41364 5935 ft 275 kts 99°
2026-04-26 19:54 37.93607 20.43745 5576 ft 274 kts 101°
2026-04-26 19:54 37.93254 20.46078 5211 ft 272 kts 98°
2026-04-26 19:54 37.93010 20.48446 4849 ft 270 kts 94°
2026-04-26 19:54 37.92933 20.50823 4473 ft 268 kts 88°
2026-04-26 19:55 37.93042 20.53168 4115 ft 265 kts 82°
2026-04-26 19:55 37.93338 20.55461 3760 ft 263 kts 76°
2026-04-26 19:55 37.93814 20.57690 3409 ft 261 kts 70°
2026-04-26 19:55 37.94457 20.59823 3114 ft 256 kts 64°
2026-04-26 19:56 37.95235 20.61796 3025 ft 244 kts 58°
2026-04-26 19:56 37.96102 20.63569 3024 ft 229 kts 53°
2026-04-26 19:56 37.97129 20.64992 2953 ft 213 kts 29°
2026-04-26 19:56 37.98490 20.65449 2864 ft 199 kts 354°
2026-04-26 19:57 37.99706 20.64803 2768 ft 188 kts 316°
2026-04-26 19:57 38.00325 20.63432 2743 ft 174 kts 289°
2026-04-26 19:57 38.00618 20.61989 2641 ft 163 kts 286°
2026-04-26 19:57 38.00971 20.60691 2548 ft 149 kts 298°
2026-04-26 19:58 38.01489 20.59617 2394 ft 143 kts 310°
2026-04-26 19:58 38.02157 20.58698 2196 ft 141 kts 319°
2026-04-26 19:58 38.02897 20.57914 2031 ft 134 kts 324°
2026-04-26 19:58 38.03648 20.57220 2022 ft 141 kts 326°
2026-04-26 19:59 38.04477 20.56501 1998 ft 144 kts 327°
2026-04-26 19:59 38.05281 20.55805 1882 ft 137 kts 327°
2026-04-26 19:59 38.06025 20.55155 1727 ft 125 kts 327°
2026-04-26 19:59 38.06742 20.54528 1396 ft 125 kts 326°
2026-04-26 20:00 38.07448 20.53903 1094 ft 123 kts 325°
2026-04-26 20:00 38.08145 20.53283 839 ft 118 kts 324°
2026-04-26 20:00 38.08813 20.52706 657 ft 124 kts 326°
2026-04-26 20:00 38.09545 20.52097 467 ft 129 kts 326°
2026-04-26 20:01 38.10296 20.51478 324 ft 130 kts 326°
2026-04-26 20:01 38.11023 20.50870 158 ft 123 kts 326°
2026-04-26 20:01 38.11718 20.50290 70 ft 116 kts 325°
2026-04-26 20:01 38.12198 20.49867 64 ft 42 kts 326°
2026-04-26 20:02 38.12399 20.49697 54 ft 36 kts 326°
2026-04-26 20:02 38.12517 20.49609 52 ft 5 kts 42°
2026-04-26 20:02 38.12495 20.49649 54 ft 8 kts 143°
2026-04-26 20:02 38.12454 20.49681 54 ft 15 kts 148°
2026-04-26 20:03 38.12297 20.49801 55 ft 23 kts 148°
2026-04-26 20:03 38.12155 20.49915 65 ft 25 kts 147°
2026-04-26 20:03 38.12007 20.50038 67 ft 25 kts 146°
2026-04-26 20:03 38.11906 20.50137 66 ft 16 kts 123°
2026-04-26 20:04 38.11894 20.50282 62 ft 18 kts 94°
2026-04-26 20:04 38.11917 20.50382 62 ft 0 kts 55°
2026-04-26 20:04 38.11923 20.50394 68 ft 0 kts 56°